Effective Sunday, March 17, 2024, the National Weather Service National Data Buoy Center will discontinue its Dial-A-Buoy Interactive Voice Response system. For more information, see Service Change Notice 24-06 (PDF).

Station MOKH1 - 1612480 - Mokuoloe, HI Image indicating link to RSS feed of recent meteorological observations for station MOKH1


Conditions at MOKH1 as of
(9:36 am HAST)
1936 GMT on 02/23/2024:
     

Click on the graph icon in the table below to see a time series plot of the last five days of that observation.

5-day plot - Wind Direction Wind Direction (WDIR):ESE ( 110 deg true )
5-day plot - Wind Speed Wind Speed (WSPD): 6.0 kts
5-day plot - Wind Gust Wind Gust (GST): 15.0 kts
5-day plot - Atmospheric Pressure Atmospheric Pressure (PRES):30.10 in
5-day plot - Air Temperature Air Temperature (ATMP): 76.3 °F
5-day plot - Water Temperature Water Temperature (WTMP): 73.4 °F
5-day plot - Wind Speed at 10 Meters Wind Speed at 10 meters (WSPD10M): 5.8 kts
5-day plot - Wind Speed at 20 Meters Wind Speed at 20 meters (WSPD20M): 7.8 kts
5-day plot -  Wind Speed, Wind Gust and Atmospheric Pressure Combined plot of Wind Speed, Gust, and Air Pressure
NOS Water Level Observation Network Water Level
Previous observations
TIME
(HAST)
5-day plot - Wind Direction
WDIR
 
5-day plot - Wind Speed
WSPD
kts
5-day plot - Wind Gust
GST
kts
5-day plot - Wave Height
WVHT
ft
5-day plot - Dominant Wave Period
DPD
sec
5-day plot - Average Wave Period
APD
sec
5-day plot - Mean Wave Direction
MWD
 
5-day plot - Atmospheric Pressure
PRES
in
5-day plot - Pressure Tendency
PTDY
in
5-day plot - Air Temperature
ATMP
°F
5-day plot - Water Temperature
WTMP
°F
5-day plot - Dew Point
DEWP
°F
5-day plot - Salinity
SAL
psu
5-day plot - Visibility
VIS
nmi
5-day plot - Tide (above MLLW)
TIDE
ft
2024-02-23 09:30 amESE 9.9 15.0----30.10- 75.9 73.4----
2024-02-23 09:24 amESE 11.1 15.9----30.10- 75.2 73.4----
2024-02-23 09:18 amESE 11.1 14.0----30.10- 75.2 73.4----
2024-02-23 09:12 amESE 11.1 17.1----30.10- 75.2 73.4----
2024-02-23 09:06 amESE 12.0 15.0----30.10- 75.0 73.4----
2024-02-23 09:00 am E 8.0 14.0----30.09+0.03 74.5 73.4----
2024-02-23 08:54 amESE 8.9 14.0----30.10- 74.5 73.4----
2024-02-23 08:48 amESE 9.9 15.9----30.09- 74.3 73.4----
2024-02-23 08:42 amESE 11.1 18.1----30.09- 74.5 73.4----
2024-02-23 08:36 amESE 12.0 15.9----30.09- 74.5 73.2----
2024-02-23 08:30 amESE 14.0 17.1----30.09- 74.5 73.2----
2024-02-23 08:24 amESE 12.0 17.1----30.09- 74.7 73.2----
2024-02-23 08:18 amESE 13.0 19.0----30.09- 74.7 73.2----
2024-02-23 08:12 amESE 14.0 17.1----30.09- 74.5 73.2----
2024-02-23 08:06 amESE 14.0 15.9----30.09- 74.5 73.2----
2024-02-23 08:00 amESE 11.1 15.0----30.09+0.02 74.7 73.2----
2024-02-23 07:54 amESE 11.1 15.0----30.09- 74.1 73.2----
2024-02-23 07:48 am SE 7.0 13.0----30.09- 73.9 73.2----
2024-02-23 07:42 amESE 12.0 15.0----30.09- 73.6 73.2----
2024-02-23 07:36 am SE 8.9 17.1----30.09- 73.0 73.2----
2024-02-23 07:30 amESE 13.0 18.1----30.08- 73.4 73.2----
2024-02-23 07:24 amESE 15.9 19.0----30.08- 73.4 73.2----
2024-02-23 07:18 am SE 14.0 20.0----30.08- 73.4 73.2----
2024-02-23 07:12 amESE 14.0 17.1----30.08- 73.4 73.2----
2024-02-23 07:06 amESE 12.0 19.0----30.08- 73.4 73.2----
2024-02-23 07:00 amESE 13.0 18.1----30.08+0.01 73.2 73.2----
2024-02-23 06:54 amESE 14.0 19.0----30.08- 73.0 73.2----
2024-02-23 06:48 amESE 11.1 15.9----30.08- 73.4 73.2----
2024-02-23 06:42 amESE 14.0 19.0----30.07- 73.4 73.2----
2024-02-23 06:36 amESE 15.0 19.0----30.07- 73.4 73.2----
2024-02-23 06:30 amESE 13.0 19.0----30.07- 73.2 73.2----
2024-02-23 06:24 amESE 15.0 21.0----30.07- 73.2 73.2----
2024-02-23 06:18 amESE 17.1 20.0----30.07- 73.0 73.2----
2024-02-23 06:12 amESE 17.1 21.0----30.07- 72.9 73.2----
2024-02-23 06:06 amESE 15.0 19.0----30.06- 73.0 73.2----
2024-02-23 06:00 amESE 13.0 18.1----30.06-0.02 73.2 73.2----
2024-02-23 05:54 amESE 12.0 19.0----30.06- 73.2 73.2----
2024-02-23 05:48 amESE 12.0 20.0----30.06- 73.4 73.2----
2024-02-23 05:42 amESE 14.0 20.0----30.06- 73.2 73.2----
2024-02-23 05:36 amESE 15.0 20.0----30.06- 73.0 73.2----
2024-02-23 05:30 amESE 15.9 20.0----30.06- 73.4 73.2----
2024-02-23 05:24 amESE 13.0 18.1----30.07- 73.4 73.2----
2024-02-23 05:18 amESE 12.0 19.0----30.07- 73.4 73.2----
2024-02-23 05:12 amESE 12.0 15.9----30.07- 73.2 73.2----
2024-02-23 05:06 amESE 13.0 18.1----30.07- 73.0 73.2----
2024-02-23 05:00 amESE 15.0 19.0----30.07-0.03 73.0 73.2----
2024-02-23 04:54 amESE 13.0 19.0----30.07- 73.2 73.2----
2024-02-23 04:48 amESE 12.0 15.9----30.07- 73.2 73.2----
2024-02-23 04:42 am E 7.0 12.0----30.07- 73.2 73.2----
2024-02-23 04:36 am E 8.9 14.0----30.07- 73.2 73.2----
2024-02-23 04:30 am E 7.0 12.0----30.07- 73.0 73.2----
2024-02-23 04:24 am E 5.1 9.9----30.07- 73.2 73.2----
2024-02-23 04:18 am E 8.9 12.0----30.07- 73.2 73.4----
2024-02-23 04:12 am E 7.0 12.0----30.07- 73.2 73.2----
2024-02-23 04:06 amESE 8.9 14.0----30.07- 73.2 73.4----
2024-02-23 04:00 am E 8.0 14.0----30.07-0.04 73.4 73.4----
2024-02-23 03:54 amESE 12.0 15.9----30.07- 73.2 73.4----
2024-02-23 03:48 amESE 11.1 15.0----30.08- 73.2 73.4----
2024-02-23 03:42 amESE 11.1 17.1----30.08- 73.4 73.4----
2024-02-23 03:36 amESE 14.0 18.1----30.08- 73.2 73.4----
2024-02-23 03:30 amESE 15.0 18.1----30.08- 73.4 73.4----
2024-02-23 03:24 amESE 12.0 19.0----30.08- 73.4 73.4----
2024-02-23 03:18 amESE 14.0 17.1----30.08- 73.0 73.4----
2024-02-23 03:12 amESE 13.0 17.1----30.08- 73.2 73.4----
2024-02-23 03:06 amESE 13.0 17.1----30.08- 73.6 73.4----
2024-02-23 03:00 amESE 13.0 18.1----30.08-0.04 73.4 73.4----
2024-02-23 02:54 amESE 12.0 17.1----30.08- 73.2 73.4----
2024-02-23 02:48 am E 9.9 18.1----30.08- 73.6 73.4----
2024-02-23 02:42 amESE 11.1 18.1----30.08- 73.4 73.4----
2024-02-23 02:36 amESE 11.1 15.0----30.09- 73.6 73.4----
2024-02-23 02:30 am E 8.9 17.1----30.09- 73.9 73.4----
2024-02-23 02:24 amESE 15.0 19.0----30.09- 73.8 73.4----
2024-02-23 02:18 amESE 15.0 17.1----30.09- 73.4 73.4----
2024-02-23 02:12 amESE 11.1 15.9----30.09- 73.6 73.4----
2024-02-23 02:06 amESE 9.9 15.9----30.09- 73.4 73.4----
2024-02-23 02:00 amESE 11.1 18.1----30.09-0.04 72.9 73.4----
2024-02-23 01:54 am E 5.1 8.9----30.10- 72.7 73.4----
2024-02-23 01:48 am E 7.0 11.1----30.10- 72.5 73.4----
2024-02-23 01:42 am E 5.1 9.9----30.10- 72.7 73.4----
2024-02-23 01:36 am E 6.0 12.0----30.10- 72.9 73.4----
2024-02-23 01:30 am E 6.0 11.1----30.10- 72.9 73.4----
2024-02-23 01:24 am E 8.0 15.0----30.11- 72.9 73.4----
2024-02-23 01:18 am E 4.1 13.0----30.11- 73.0 73.4----
2024-02-23 01:12 am E 6.0 14.0----30.11- 73.4 73.4----
2024-02-23 01:06 amESE 9.9 14.0----30.11- 73.0 73.4----
2024-02-23 01:00 am E 8.0 15.9----30.11-0.03 72.7 73.4----
2024-02-23 12:54 amESE 11.1 17.1----30.11- 73.2 73.4----
2024-02-23 12:48 amESE 12.0 17.1----30.12- 73.2 73.4----
2024-02-23 12:42 amESE 11.1 17.1----30.12- 73.2 73.4----
2024-02-23 12:36 amESE 12.0 18.1----30.12- 73.0 73.4----
2024-02-23 12:30 am E 11.1 15.0----30.12- 73.0 73.6----
2024-02-23 12:24 amESE 11.1 18.1----30.12- 73.2 73.6----
2024-02-23 12:18 amESE 12.0 20.0----30.12- 72.9 73.6----
2024-02-23 12:12 amESE 15.9 22.0----30.12- 73.2 73.6----
2024-02-23 12:06 amESE 15.0 22.0----30.12- 73.4 73.6----
2024-02-23 12:00 amESE 14.0 19.0----30.12-0.02 74.1 73.6----
2024-02-22 11:54 pmESE 11.1 17.1----30.12- 73.6 73.6----
2024-02-22 11:48 pmESE 12.0 15.9----30.13- 73.8 73.6----
2024-02-22 11:42 pm E 9.9 15.0----30.13- 73.9 73.6----
2024-02-22 11:36 pmESE 9.9 17.1----30.13- 73.9 73.6----
2024-02-22 11:30 pmESE 11.1 18.1----30.13- 73.9 73.6----
2024-02-22 11:24 pmESE 12.0 17.1----30.14- 73.9 73.6----
2024-02-22 11:18 pmESE 11.1 18.1----30.14- 73.9 73.6----
2024-02-22 11:12 pmESE 13.0 19.0----30.14- 73.8 73.8----
2024-02-22 11:06 pmESE 17.1 22.0----30.14- 73.4 73.8----
2024-02-22 11:00 pmESE 14.0 22.0----30.14+0.00 72.9 73.8----
2024-02-22 10:54 pmESE 15.0 21.0----30.14- 73.0 73.8----
2024-02-22 10:48 pmESE 17.1 21.0----30.14- 73.6 73.8----
2024-02-22 10:42 pmESE 15.9 20.0----30.14- 73.6 73.8----
2024-02-22 10:36 pmESE 15.0 21.0----30.14- 73.6 73.8----
2024-02-22 10:30 pmESE 15.0 21.0----30.14- 73.4 73.8----
2024-02-22 10:24 pmESE 15.9 20.0----30.14- 73.4 73.8----
2024-02-22 10:18 pm E 12.0 21.0----30.14- 73.6 73.8----
2024-02-22 10:12 pm E 12.0 17.1----30.14- 73.4 73.8----
2024-02-22 10:06 pm E 9.9 18.1----30.14- 73.8 73.8----
2024-02-22 10:00 pmESE 14.0 20.0----30.15+0.03 73.2 73.8----
2024-02-22 09:54 pmESE 13.0 18.1----30.15- 73.4 73.8----
2024-02-22 09:48 pmESE 12.0 19.0----30.15- 73.2 73.8----
2024-02-22 09:42 pmESE 15.0 20.0----30.15- 73.0 73.8----
2024-02-22 09:36 pmESE 15.0 19.0----30.14- 73.0 73.8----
2024-02-22 09:30 pm E 9.9 15.9----30.14- 73.2 73.8----
2024-02-22 09:24 pm E 9.9 18.1----30.14- 73.0 73.9----
2024-02-22 09:18 pm E 9.9 22.9----30.14- 73.4 73.9----
2024-02-22 09:12 pmESE 14.0 20.0----30.14- 73.0 73.9----
2024-02-22 09:06 pmESE 12.0 18.1----30.14- 72.9 73.9----
2024-02-22 09:00 pm E 8.9 15.9----30.14+0.04 72.9 73.9----
2024-02-22 08:54 pmESE 12.0 19.0----30.14- 72.9 73.9----
2024-02-22 08:48 pm E 8.0 17.1----30.14- 73.2 73.9----
2024-02-22 08:42 pmESE 14.0 22.0----30.14- 73.0 73.9----
2024-02-22 08:36 pmESE 18.1 22.0----30.14- 72.9 73.9----
2024-02-22 08:30 pmESE 13.0 19.0----30.14- 73.0 73.9----
2024-02-22 08:24 pmESE 14.0 20.0----30.14- 72.9 73.9----
2024-02-22 08:18 pmESE 14.0 19.0----30.14- 73.2 73.9----
2024-02-22 08:12 pm E 7.0 17.1----30.14- 73.0 73.9----
2024-02-22 08:06 pmESE 14.0 18.1----30.14- 73.0 73.9----
2024-02-22 08:00 pmESE 14.0 18.1----30.13+0.04 73.2 73.9----
2024-02-22 07:54 pm E 8.0 14.0----30.13- 73.6 73.9----
2024-02-22 07:48 pm E 8.0 13.0----30.13- 73.2 73.9----
2024-02-22 07:42 pm E 8.0 17.1----30.12- 73.4 73.9----
2024-02-22 07:36 pm E 8.0 14.0----30.12- 73.2 73.9----
2024-02-22 07:30 pm E 8.0 12.0----30.12- 73.4 73.9----
2024-02-22 07:24 pm E 9.9 17.1----30.12- 73.6 73.9----
2024-02-22 07:18 pm E 11.1 15.9----30.12- 73.4 73.9----
2024-02-22 07:12 pm E 8.9 14.0----30.11- 73.4 73.9----
2024-02-22 07:06 pm E 8.0 14.0----30.12- 73.6 73.9----
2024-02-22 07:00 pm E 8.0 17.1----30.11+0.02 73.6 73.9----
2024-02-22 06:54 pm E 8.0 15.9----30.12- 73.6 73.9----
2024-02-22 06:48 pm E 8.0 15.0----30.11- 73.8 73.9----
2024-02-22 06:42 pm E 8.0 15.9----30.11- 73.8 73.9----
2024-02-22 06:36 pm E 8.0 15.0----30.11- 73.9 73.9----
2024-02-22 06:30 pm E 8.9 13.0----30.11- 73.9 73.9----
2024-02-22 06:24 pm E 8.0 11.1----30.11- 73.8 73.9----
2024-02-22 06:18 pm E 7.0 13.0----30.11- 74.1 73.9----
2024-02-22 06:12 pm E 8.9 17.1----30.11- 74.1 73.9----
2024-02-22 06:06 pm E 9.9 15.9----30.11- 74.1 73.9----
2024-02-22 06:00 pm E 8.9 17.1----30.11+0.01 74.1 73.9----
2024-02-22 05:54 pm E 7.0 15.9----30.11- 74.3 73.9----
2024-02-22 05:48 pm E 7.0 15.0----30.10- 74.5 73.9----
2024-02-22 05:42 pm E 7.0 15.9----30.10- 74.1 73.9----
2024-02-22 05:36 pm E 11.1 17.1----30.10- 74.3 73.9----
2024-02-22 05:30 pm E 5.1 11.1----30.10- 74.3 73.9----
2024-02-22 05:24 pm E 5.1 9.9----30.10- 74.5 73.9----
2024-02-22 05:18 pm E 6.0 17.1----30.10- 74.5 73.9----
2024-02-22 05:12 pm E 8.0 15.0----30.10- 74.3 73.9----
2024-02-22 05:06 pm E 5.1 13.0----30.10- 74.7 73.9----
2024-02-22 05:00 pm E 7.0 15.0----30.10-0.01 74.3 73.9----
2024-02-22 04:54 pmESE 9.9 14.0----30.10- 74.5 73.9----
2024-02-22 04:48 pm E 7.0 17.1----30.10- 74.7 73.9----
2024-02-22 04:42 pm E 8.0 15.0----30.10- 74.5 73.9----
2024-02-22 04:36 pm E 5.1 13.0----30.10- 75.0 73.9----
2024-02-22 04:30 pmESE 8.9 14.0----30.10- 74.7 73.9----
2024-02-22 04:24 pmESE 11.1 15.0----30.10- 74.8 73.9----
2024-02-22 04:18 pm E 7.0 15.0----30.10- 75.2 73.9----
2024-02-22 04:12 pmESE 14.0 17.1----30.10- 75.6 73.9----
2024-02-22 04:06 pm E 6.0 13.0----30.10- 75.2 73.9----
2024-02-22 04:00 pm E 6.0 14.0----30.10-0.04 74.8 73.9----
2024-02-22 03:54 pmESE 11.1 15.0----30.10- 74.3 73.9----
2024-02-22 03:48 pm E 8.0 15.9----30.10- 74.5 73.9----
2024-02-22 03:42 pm E 6.0 12.0----30.09- 74.7 73.9----
2024-02-22 03:36 pm E 6.0 13.0----30.09- 74.7 73.9----
2024-02-22 03:30 pm E 8.9 14.0----30.09- 74.8 73.9----
2024-02-22 03:24 pmESE 9.9 15.9----30.09- 75.2 73.9----
2024-02-22 03:18 pm E 8.0 14.0----30.09- 75.7 73.9----
2024-02-22 03:12 pmESE 13.0 15.0----30.09- 76.1 73.9----
2024-02-22 03:06 pm E 7.0 15.9----30.09- 76.3 73.9----
2024-02-22 03:00 pmESE 11.1 15.0----30.09-0.07 75.6 73.9----
2024-02-22 02:54 pm E 8.0 13.0----30.09- 75.4 73.9----
2024-02-22 02:48 pmESE 12.0 15.0----30.09- 75.7 73.9----
2024-02-22 02:42 pmESE 12.0 17.1----30.09- 75.7 73.9----
2024-02-22 02:36 pm E 6.0 9.9----30.10- 76.1 73.9----
2024-02-22 02:30 pm E 8.0 13.0----30.10- 75.6 73.8----
2024-02-22 02:24 pmESE 9.9 15.9----30.10- 75.6 73.8----
2024-02-22 02:18 pmESE 9.9 14.0----30.10- 75.4 73.8----
2024-02-22 02:12 pmESE 11.1 14.0----30.10- 75.2 73.8----
2024-02-22 02:06 pm E 8.0 14.0----30.10- 75.0 73.8----
2024-02-22 02:00 pm E 5.1 14.0----30.11-0.07 75.0 73.8----
2024-02-22 01:54 pm E 6.0 12.0----30.11- 74.8 73.8----
2024-02-22 01:48 pm E 6.0 15.0----30.11- 74.8 73.8----
2024-02-22 01:42 pm E 8.0 15.9----30.11- 75.2 73.8----
2024-02-22 01:36 pm E 8.9 13.0----30.11- 74.8 73.8----
2024-02-22 01:30 pm E 6.0 14.0----30.12- 76.1 73.8----
2024-02-22 01:24 pm E 8.0 14.0----30.12- 76.1 73.8----
2024-02-22 01:18 pm E 6.0 14.0----30.13- 76.6 73.6----
2024-02-22 01:12 pmESE 8.0 15.0----30.13- 76.6 73.6----
2024-02-22 01:06 pm E 7.0 12.0----30.13- 76.5 73.6----
2024-02-22 01:00 pm E 6.0 12.0----30.14-0.04 76.3 73.6----
2024-02-22 12:54 pm E 7.0 13.0----30.14- 76.5 73.6----
2024-02-22 12:48 pm E 7.0 14.0----30.14- 76.5 73.6----
2024-02-22 12:42 pmESE 11.1 15.0----30.14- 76.6 73.6----
2024-02-22 12:36 pm E 7.0 15.0----30.15- 76.1 73.6----
2024-02-22 12:30 pmESE 7.0 12.0----30.16- 76.6 73.6----
2024-02-22 12:24 pm E 6.0 13.0----30.16- 76.5 73.6----
2024-02-22 12:18 pm E 5.1 12.0----30.16- 76.3 73.6----
2024-02-22 12:12 pm E 5.1 8.9----30.16- 76.5 73.6----
2024-02-22 12:06 pm E 6.0 12.0----30.16- 76.3 73.6----
2024-02-22 12:00 pmESE 7.0 13.0----30.16-0.01 76.5 73.6----
2024-02-22 11:54 amESE 7.0 14.0----30.16- 76.1 73.6----
2024-02-22 11:48 amESE 7.0 11.1----30.16- 75.9 73.6----
2024-02-22 11:42 am E 7.0 11.1----30.16- 75.6 73.4----
2024-02-22 11:36 amESE 8.9 14.0----30.17- 75.4 73.4----
2024-02-22 11:30 am E 7.0 15.0----30.17- 75.6 73.4----
2024-02-22 11:24 amESE 9.9 15.0----30.17- 75.6 73.4----
2024-02-22 11:18 am E 5.1 12.0----30.17- 75.6 73.4----
2024-02-22 11:12 am E 8.0 14.0----30.17- 75.6 73.4----
2024-02-22 11:06 amESE 8.9 15.0----30.17- 75.4 73.2----
2024-02-22 11:00 amESE 12.0 15.0----30.18+0.02 75.6 73.2----
2024-02-22 10:54 amESE 9.9 17.1----30.17- 75.6 73.2----
2024-02-22 10:48 amESE 11.1 17.1----30.18- 75.7 73.2----
2024-02-22 10:42 amESE 14.0 18.1----30.18- 75.6 73.2----
2024-02-22 10:36 am E 6.0 15.0----30.18- 75.4 73.2----
2024-02-22 10:30 amESE 13.0 17.1----30.18- 75.4 73.2----
2024-02-22 10:24 amESE 8.0 14.0----30.18- 75.4 73.0----
2024-02-22 10:18 am E 8.9 14.0----30.18- 75.0 73.0----
2024-02-22 10:12 amESE 11.1 14.0----30.18- 75.4 73.0----
2024-02-22 10:06 amESE 9.9 15.0----30.18- 75.7 73.0----
2024-02-22 10:00 amESE 11.1 15.9----30.18+0.04 75.7 73.0----
2024-02-22 09:54 amESE 8.9 14.0----30.18- 75.7 73.0----